Simultaneous Nadir Overpasses (SNOs) Predictions

Prediction of SNOs between GOES-15 and TERRA Satellite Orbit:

Table of predicted SNOs for the next 14.0 days since TLE Epoch: 7/29/2023
Index Date Time (GOES-15) GOES-15 Lat,Lon TERRA Lat,Lon Distance(km) Time Diff (sec)
1 07/30/2023 23:05:37 0.02, 161.21 -0.58, 164.12 330.43 80
2 07/31/2023 11:28:38 -0.07, 160.73 -0.37, 159.16 177.59 80
3 08/02/2023 11:09:45 -0.02, 158.73 0.87, 163.01 487.41 80
4 08/02/2023 23:32:37 0.07, 158.17 0.10, 158.09 8.75 80
5 08/05/2023 11:34:05 -0.07, 155.68 0.23, 156.99 149.53 80
6 08/05/2023 23:56:58 0.12, 155.12 0.74, 152.07 346.37 80
7 08/07/2023 23:38:04 0.08, 153.10 -0.50, 155.93 320.47 80
8 08/08/2023 12:01:04 -0.13, 152.62 -0.49, 150.98 186.73 80
9 08/10/2023 11:42:10 -0.09, 150.61 0.77, 154.84 480.35 80
10 08/11/2023 00:05:03 0.14, 150.05 0.19, 149.92 15.60 80
